GFSCGP_con_mucape_006.txt.gz
CAPE
0 0 0 1 0 0 0 1 0 0 12 96 86 86 35 137 354 489 450 364 323 312 386 496 662 718 779 979 850 670 458 307 364 76 39 0 0 0 0 0 0 0 0 0
0 0 0 0 0 0 0 0 32 5 0 118 180 207 95 63 161 412 500 498 448 371 497 631 810 850 844 767 701 598 456 377 46 9 0 0 0 0 0 0 0 0 0 0
28 26 0 10 18 36 72 80 84 32 26 118 221 273 219 115 85 79 248 369 398 590 693 831 963 1044 1035 961 927 615 215 1 0 0 0 0 0 0 0 0 0 0 0 0
120 32 47 79 44 37 125 24 19 50 72 125 52 277 335 287 268 235 184 286 478 693 924 965 1123 1193 1073 1004 500 26 0 0 0 0 0 0 0 0 0 0 0 0 0 0
83 63 77 108 79 46 102 62 81 58 157 137 119 180 432 284 344 328 277 352 439 555 500 388 270 249 11 0 0 0 0 0 0 0 0 0 0 0 0 0 0 0 0 0
71 24 58 52 11 10 5 59 68 81 139 163 117 120 191 357 351 360 212 75 54 26 1 0 0 0 0 0 0 0 0 0 0 0 0 0 0 0 0 0 0 0 0 0
95 65 22 17 46 4 60 128 130 78 139 140 11 34 73 126 131 373 209 0 0 0 0 0 0 0 0 0 0 0 0 0 0 0 0 0 1 0 0 0 0 0 0 0
99 99 0 0 15 29 91 112 69 9 105 43 0 14 32 0 0 239 86 0 0 0 0 0 0 0 0 0 0 0 0 0 0 0 0 0 0 0 0 0 0 0 0 0
33 0 0 0 0 0 0 4 11 34 1 71 22 41 8 0 0 33 4 0 0 0 0 0 0 0 0 0 0 0 0 0 0 0 0 0 0 0 0 0 0 0 0 0
27 0 0 0 0 0 0 0 5 21 9 0 0 3 2 0 0 0 0 0 0 0 0 0 0 0 0 0 0 0 0 1 6 1 0 0 0 0 0 0 0 0 0 0
0 1 0 0 0 0 0 0 0 0 0 0 0 0 0 0 0 0 0 0 0 0 0 0 0 0 0 0 0 0 1 6 18 22 0 0 0 0 0 0 0 0 0 0
0 0 11 0 0 0 0 0 0 0 0 0 0 0 0 0 0 0 0 0 0 0 0 0 0 0 0 2 1 3 17 27 25 0 0 0 0 0 0 0 0 0 0 0
0 0 0 0 0 0 0 0 0 0 0 0 97 0 0 0 0 0 0 0 0 0 0 0 0 0 6 7 7 12 30 20 0 0 0 0 0 0 0 0 0 0 0 2
0 0 0 15 0 0 0 0 0 0 0 0 0 0 0 0 0 0 0 0 0 0 0 0 0 4 8 8 7 9 16 0 0 0 0 0 0 0 0 0 0 0 0 4
0 0 0 0 0 0 0 0 0 0 0 0 0 0 0 0 0 0 0 0 0 0 0 0 5 3 1 2 7 11 0 0 0 0 0 0 0 0 0 0 0 0 2 14
0 0 0 0 0 0 0 0 0 0 0 0 0 0 0 0 0 0 0 0 0 0 0 0 0 0 0 3 4 8 0 0 0 0 0 0 0 0 0 0 0 0 2 13
0 0 0 0 0 0 0 0 0 0 0 0 0 0 0 0 0 0 0 0 0 0 0 0 0 0 2 6 21 7 0 0 0 0 0 0 0 0 0 0 0 0 2 20
0 0 0 0 0 1 0 0 0 0 0 0 0 0 0 0 0 0 0 0 0 0 0 0 0 0 6 19 13 3 0 0 0 0 0 0 0 0 0 0 0 4 14 18
0 0 0 20 0 0 0 0 0 0 0 0 0 0 0 0 0 0 0 0 0 0 0 0 0 0 11 19 17 1 0 0 0 0 0 0 0 0 0 0 2 12 20 15
0 0 0 0 141 201 0 0 0 0 0 0 0 0 0 0 0 0 0 0 0 0 0 0 0 7 22 16 20 0 0 0 0 0 0 0 0 0 0 0 2 15 18 9
0 0 0 0 0 0 0 0 0 0 0 0 0 0 0 0 0 0 0 0 0 0 0 0 3 7 8 3 1 0 0 0 0 0 0 0 0 0 0 0 3 12 17 5
0 0 0 0 6 0 0 0 0 0 0 0 0 0 0 0 0 0 0 0 0 0 0 0 5 10 15 12 0 0 0 0 0 0 0 0 0 0 0 0 3 9 2 2
0 0 0 0 0 0 0 0 0 0 0 0 0 0 0 0 0 0 0 0 0 4 7 12 34 31 22 11 0 0 0 0 0 0 0 0 0 0 0 1 7 12 7 0
0 0 0 0 0 0 0 0 0 0 0 0 0 0 0 0 0 0 0 0 0 4 12 28 28 23 33 0 0 0 0 0 0 0 0 0 0 0 0 5 6 12 12 3
0 0 0 0 0 0 0 0 0 0 0 0 0 0 0 0 0 0 0 0 0 7 12 14 9 5 0 0 0 0 0 0 0 0 0 0 0 0 0 0 13 8 11 0
0 0 2 4 0 0 0 0 0 0 0 0 0 0 0 0 0 0 0 3 12 15 9 10 2 0 0 0 0 0 0 0 0 0 0 0 0 0 0 0 0 0 0 0

GFSCGP_con_mucape_009.txt.gz
CAPE
0 10 2 0 0 0 0 0 4 5 0 1 61 27 49 206 220 297 507 733 773 777 840 809 547 623 819 1131 1086 973 736 636 706 348 108 11 0 0 0 0 0 0 0 0
0 0 0 0 1 0 1 4 24 3 1 129 103 157 94 178 268 400 407 482 601 725 814 784 884 871 1021 1291 1244 1019 826 727 280 76 10 41 16 0 0 0 0 0 0 0
36 3 4 0 0 0 10 7 34 75 116 117 124 228 239 171 321 491 560 586 612 750 901 1042 1069 1146 1238 1217 1060 924 700 273 23 5 0 0 0 0 0 0 0 0 0 0
6 39 48 7 10 53 32 83 40 62 153 114 54 135 180 344 297 292 455 632 726 870 1068 1248 1250 1144 1213 1191 984 525 144 3 0 0 0 0 2 2 0 0 0 0 0 0
157 152 80 75 127 112 195 164 149 159 210 151 163 112 31 422 414 340 379 497 660 864 1115 1254 1398 1370 1115 882 530 46 0 0 0 0 0 0 0 0 0 0 0 0 0 0
18 120 171 196 126 115 160 198 182 136 169 204 79 11 295 503 424 451 528 644 919 1134 1158 1000 811 710 374 111 2 0 0 0 0 0 0 0 0 0 1 0 1 0 0 0
78 91 100 103 141 171 168 220 165 192 344 186 104 148 134 99 226 417 541 626 737 699 430 202 163 0 0 0 0 0 0 0 0 0 0 0 0 0 0 0 0 0 0 0
123 195 103 103 172 135 116 117 188 57 141 127 148 74 87 123 39 178 514 425 416 236 16 0 0 0 0 0 0 0 0 0 0 0 0 0 0 0 0 0 0 0 0 0
133 81 46 44 53 42 74 101 90 155 148 139 52 39 94 84 54 187 503 309 226 38 0 0 0 0 0 0 0 0 0 0 0 0 0 0 0 0 0 0 0 0 0 0
129 146 11 0 5 4 41 36 47 13 0 37 74 71 48 165 63 104 446 238 97 2 0 0 0 0 0 0 0 0 0 0 0 0 0 0 2 0 0 0 0 0 0 0
53 40 63 0 0 13 12 0 0 36 153 113 1 32 2 0 18 67 258 205 93 4 0 0 0 0 0 0 0 0 0 0 0 0 1 21 1 0 0 0 0 0 0 0
2 62 298 51 0 0 3 43 8 0 0 1 27 2 0 0 0 10 73 141 81 7 0 0 0 0 0 0 0 0 0 0 1 2 18 4 0 0 0 0 0 0 0 0
88 2 138 47 16 0 0 0 0 0 0 0 165 0 0 0 0 0 4 48 63 28 5 0 0 0 0 0 0 1 3 3 3 23 39 0 0 0 0 0 0 0 0 0
0 0 11 130 77 24 0 0 0 0 0 0 0 0 0 0 0 0 0 1 35 29 22 0 0 0 0 0 6 8 9 11 18 22 1 0 0 0 0 0 0 0 0 0
22 18 0 16 0 0 0 0 0 0 0 12 0 0 0 0 0 0 0 0 0 5 1 0 0 0 0 12 30 32 2 12 7 10 0 0 0 0 0 0 0 0 0 2
3 61 0 0 0 0 0 0 0 0 0 0 0 0 0 0 0 0 0 0 0 0 0 0 0 0 0 15 28 5 0 1 8 15 0 0 0 0 0 0 0 0 1 3
70 41 0 0 0 0 0 0 0 0 0 0 0 0 0 0 0 0 0 0 0 0 0 0 0 0 0 0 0 0 1 5 26 3 0 0 0 0 0 0 0 0 4 12
0 0 0 0 0 0 0 0 0 0 0 0 0 0 0 0 0 0 0 0 0 0 0 0 0 0 0 0 0 11 25 12 10 11 0 0 0 0 0 0 0 2 14 24
0 0 0 3 0 0 0 0 0 0 0 0 0 0 0 0 0 0 0 0 0 0 0 0 0 0 0 0 9 29 40 30 7 0 0 0 0 0 0 0 0 2 14 27
0 0 0 0 0 0 0 0 0 0 0 0 0 0 0 0 0 0 0 0 0 0 0 0 0 0 0 0 21 34 48 41 21 0 0 2 0 0 0 0 0 1 13 21
0 0 0 0 3 0 0 0 0 0 0 0 0 0 0 0 0 0 0 0 0 0 0 0 0 1 3 8 26 38 27 9 0 0 0 0 0 0 0 0 0 0 6 21
0 0 1 0 0 0 0 0 0 0 0 0 0 0 0 0 0 0 0 0 0 0 0 0 13 24 23 13 19 11 25 0 0 0 1 0 0 0 0 0 0 2 15 25
1 0 11 0 0 0 0 0 0 0 0 0 0 0 0 0 0 0 0 0 0 0 0 0 8 35 35 30 31 4 0 0 0 0 0 0 0 0 0 0 0 10 17 16
0 0 0 0 0 0 0 0 0 0 0 0 0 0 0 0 0 0 4 0 0 0 0 0 0 4 14 20 2 0 0 0 0 0 0 0 0 0 0 0 0 11 16 25
0 0 0 0 0 0 0 0 0 0 0 0 1 4 5 0 0 2 1 0 0 0 0 0 7 13 18 13 0 0 0 0 0 0 0 0 0 0 1 1 1 11 9 7
0 0 3 0 0 0 0 2 0 2 1 2 0 0 0 0 0 0 0 0 0 0 0 2 6 4 1 0 0 0 0 0 0 0 0 0 0 6 5 5 0 0 0 0

GFSCGP_con_mucape_012.txt.gz
CAPE
14 6 5 7 1 0 0 2 2 6 0 0 26 1 0 13 384 471 509 558 598 590 584 432 321 474 954 832 665 763 697 571 604 321 1 0 0 0 0 0 0 0 0 0
0 0 0 0 0 0 3 15 3 0 0 0 5 8 3 22 36 182 367 543 555 614 662 742 645 505 906 1010 873 884 688 657 682 182 44 59 0 0 0 0 0 0 0 0
1 0 0 0 0 1 0 16 16 7 0 0 62 46 4 12 56 99 154 327 517 628 867 886 708 935 1412 1058 1044 988 655 719 127 2 0 0 0 0 0 0 0 0 0 0
0 0 0 0 0 0 41 51 8 16 37 0 50 96 5 92 19 144 273 333 367 548 793 883 1055 1063 1416 1024 997 798 620 87 0 0 0 0 0 0 0 0 0 0 0 0
4 20 1 1 18 81 23 21 36 44 73 148 80 69 91 1 151 174 359 515 608 716 814 1062 1149 1175 1152 821 1007 559 205 11 0 0 0 0 0 0 0 0 0 0 0 0
4 9 26 65 38 71 71 7 85 23 56 301 12 49 27 17 21 219 214 412 598 694 946 1066 1047 938 809 820 458 190 73 0 0 0 0 0 0 0 0 0 0 0 0 0
1 1 15 20 2 25 9 28 72 78 182 249 72 77 251 44 112 88 119 415 594 872 938 1014 1042 1030 775 430 235 102 4 0 0 0 0 0 0 0 0 0 1 5 0 0
63 74 23 1 1 22 52 1 168 8 0 52 36 38 18 213 161 98 343 552 854 986 1006 856 681 489 447 213 71 0 0 0 0 0 0 0 0 0 0 1 14 12 0 0
46 0 1 9 0 2 0 59 40 10 129 245 15 0 1 24 11 88 558 545 670 627 446 285 203 120 0 0 0 0 0 0 0 0 0 0 0 0 0 8 3 0 0 0
29 0 18 6 3 4 5 0 98 88 10 0 0 18 112 59 21 8 416 442 443 369 155 23 1 0 0 0 0 0 0 0 0 0 0 0 0 0 6 9 0 0 0 0
70 169 85 10 5 0 0 2 0 0 285 514 324 29 5 0 1 53 125 505 355 266 70 0 0 0 0 0 0 0 0 0 0 0 0 0 1 4 16 0 0 0 0 0
17 38 586 74 0 0 0 78 0 510 32 552 394 12 0 0 0 0 13 276 279 170 28 0 0 0 0 0 0 0 0 0 0 0 0 2 4 22 10 0 0 0 0 0
35 55 304 80 127 19 0 0 18 31 181 180 291 63 0 0 0 0 0 13 216 151 32 0 0 0 0 0 0 0 0 0 0 1 8 13 37 34 24 0 0 0 0 0
160 27 6 286 72 64 101 0 0 0 236 47 0 0 0 0 0 0 0 0 14 102 75 3 0 0 0 0 0 0 0 5 2 10 25 48 45 44 0 0 0 0 0 0
25 9 1 0 25 21 20 6 0 0 0 0 20 0 0 0 0 0 0 0 0 0 43 41 57 36 9 3 0 0 9 26 33 44 39 35 6 0 0 0 0 0 0 0
38 234 185 173 28 3 0 0 0 0 0 0 0 0 0 0 0 0 0 0 0 0 0 54 108 83 75 61 36 0 0 10 23 34 35 24 6 0 0 0 0 0 0 0
425 703 182 47 0 0 0 0 0 0 0 0 0 0 0 0 0 0 0 0 0 0 0 0 19 48 71 27 0 0 0 0 0 13 37 14 2 0 0 0 0 0 0 0
330 317 213 192 0 0 0 0 0 0 0 0 0 0 0 0 0 0 0 0 0 0 0 0 0 0 0 0 0 0 0 0 0 24 8 9 0 0 0 0 0 0 0 2
63 183 133 47 0 0 0 0 0 0 0 0 0 0 0 0 0 0 0 0 0 0 0 0 0 0 0 0 0 0 0 0 5 7 4 0 0 0 0 0 0 0 0 0
0 9 334 0 52 0 0 0 0 0 0 0 0 0 0 0 0 0 0 0 0 0 0 0 0 0 0 0 1 1 4 5 7 0 0 0 0 0 0 0 0 0 0 0
0 50 0 0 54 7 0 0 0 0 1 0 0 0 0 0 0 0 0 0 0 0 0 0 0 1 7 15 9 24 9 33 31 0 0 0 0 0 0 0 0 0 0 0
9 132 2 144 0 0 0 0 0 35 0 0 0 0 0 0 0 0 0 0 0 0 0 0 0 0 1 10 24 32 34 27 26 12 0 0 0 0 0 0 0 0 0 0
120 160 499 7 52 0 0 0 0 0 0 0 0 0 0 0 0 0 1 0 0 0 0 0 0 0 0 6 18 34 26 9 0 0 0 0 0 0 0 0 0 0 0 0
15 0 85 8 0 0 0 0 0 0 0 0 0 0 5 1 7 0 8 2 0 0 0 0 0 0 0 8 16 10 0 0 0 0 0 0 0 0 0 0 0 0 0 1
89 0 0 0 0 0 0 2 4 0 0 0 6 5 0 0 0 0 0 0 0 0 0 0 0 0 0 1 2 0 0 0 0 0 0 0 0 0 0 0 0 0 0 0
0 0 191 155 0 1 2 0 0 0 0 0 0 0 0 0 0 0 0 0 0 0 0 0 0 0 0 0 0 0 0 0 0 0 0 0 0 0 0 0 0 0 0 0

GFSCGP_con_mucape_015.txt.gz
CAPE
0 10 1 0 0 0 0 0 3 2 0 0 0 12 133 232 182 93 267 397 127 114 78 24 270 327 347 324 573 507 263 111 88 137 5 0 0 0 0 0 0 0 0 0
2 0 0 0 0 0 2 2 1 0 0 0 2 0 24 187 163 221 158 133 255 205 172 146 334 486 528 433 580 546 405 219 118 209 0 0 0 0 0 0 0 0 0 0
0 0 1 0 0 0 0 13 10 1 0 0 11 13 0 0 91 393 334 179 347 391 421 364 275 595 661 666 527 514 420 220 283 261 0 0 0 0 0 0 0 0 0 0
0 0 0 0 0 0 1 1 9 4 0 2 2 23 40 12 4 50 383 396 500 516 496 489 333 687 651 661 708 632 556 442 371 19 0 0 0 0 0 0 0 0 0 0
5 8 2 0 0 0 0 0 0 9 1 2 8 2 49 3 0 6 88 160 454 532 657 684 549 760 824 857 831 724 585 416 98 10 0 0 0 0 0 0 0 0 0 0
0 0 3 9 0 0 34 0 1 5 0 14 38 1 3 1 5 0 80 143 331 623 682 704 794 983 952 961 955 722 569 407 85 0 0 0 0 0 0 0 0 0 0 0
3 0 1 1 8 49 34 45 26 3 1 7 26 9 0 7 0 0 25 164 347 621 676 810 890 896 806 723 721 608 536 415 163 2 0 0 0 0 0 0 0 0 0 0
0 17 1 20 16 21 3 2 2 0 0 17 5 16 11 0 7 6 14 142 53 688 858 989 1003 916 787 674 691 370 345 228 232 0 0 0 0 0 0 0 0 0 3 3
10 46 10 12 48 29 6 17 11 21 1 2 27 19 80 30 23 0 10 133 164 673 761 935 930 728 675 723 565 364 166 174 148 0 0 0 0 0 0 0 0 1 0 0
22 35 2 0 5 3 22 5 41 10 3 1 0 3 34 24 28 77 150 308 612 836 834 774 816 814 690 697 556 465 221 64 2 0 0 0 0 0 0 0 2 10 16 0
17 6 21 0 10 0 0 0 0 0 0 0 40 4 0 0 0 105 312 394 639 717 657 481 367 401 474 472 326 0 0 0 0 0 0 0 0 0 0 2 10 20 0 0
8 1 22 39 2 11 0 11 46 3 0 5 1 2 0 0 0 0 41 401 517 478 387 246 72 29 3 0 0 0 0 0 0 0 0 0 1 9 6 13 30 1 1 0
37 0 0 0 31 70 21 0 22 3 0 0 0 0 0 0 0 0 0 4 329 325 232 145 60 0 0 0 0 0 0 0 2 16 2 0 0 2 11 20 18 0 0 0
62 33 0 0 0 43 15 16 0 1 0 0 0 0 0 0 0 0 0 0 29 245 162 78 16 1 1 0 3 2 19 43 61 62 28 35 9 6 13 8 0 0 0 0
8 0 0 0 30 15 6 13 0 0 0 0 0 0 0 0 0 0 0 0 0 0 32 22 36 31 32 32 38 40 43 63 92 61 26 12 3 11 2 0 0 0 0 0
1 6 0 0 0 0 0 0 0 0 0 0 0 0 0 0 0 0 0 0 0 0 0 0 6 57 51 37 37 65 70 69 68 40 5 2 1 2 0 0 0 0 0 0
3 10 0 0 0 0 0 0 0 0 0 0 0 0 0 0 0 0 0 0 0 0 0 0 0 52 72 79 63 48 46 45 27 21 8 0 0 0 0 0 0 0 0 0
89 41 7 0 0 0 0 0 0 0 0 0 0 0 0 0 0 0 0 0 0 0 0 0 0 0 21 20 25 21 20 25 16 6 7 0 0 0 0 0 0 0 0 0
132 26 0 0 0 0 0 0 0 0 0 0 0 0 0 0 0 0 0 0 0 0 0 0 0 0 0 0 12 13 10 2 0 0 2 0 0 0 0 0 0 0 0 0
7 0 0 0 0 0 0 0 0 0 0 0 0 0 0 0 0 0 0 0 0 0 0 0 0 0 0 0 6 16 20 10 0 0 0 0 0 0 0 0 0 0 0 0
0 0 0 0 0 0 0 0 0 0 0 0 0 0 0 0 0 0 0 0 0 0 0 0 0 0 0 5 15 39 33 31 23 18 21 9 0 0 0 0 0 0 0 0
0 0 0 0 0 0 0 0 0 0 0 0 0 0 0 0 0 0 0 0 0 0 0 0 0 0 7 29 38 30 38 54 50 43 56 22 0 0 0 0 0 0 0 0
4 0 0 0 0 0 0 0 0 0 0 0 0 0 0 0 0 0 0 0 0 0 0 0 1 0 1 15 15 17 35 34 31 9 0 0 0 0 0 0 0 0 0 0
1 3 0 0 0 0 0 0 0 0 0 0 0 0 0 0 0 0 0 0 0 0 5 2 0 0 0 0 5 6 2 1 3 0 0 0 0 0 0 0 0 0 0 0
18 0 0 0 0 0 0 0 0 0 0 0 0 0 0 0 0 0 0 0 0 0 0 0 0 0 0 0 0 0 0 0 0 0 0 0 0 0 0 0 0 0 0 0
6 0 0 0 0 0 0 0 0 0 0 0 0 0 0 0 0 0 0 0 0 0 0 0 0 0 0 0 0 0 0 0 0 0 0 0 0 0 0 0 0 0 0 0

GFSCGP_con_mucape_018.txt.gz
CAPE
0 1 0 0 2 0 0 0 1 12 2 1 26 302 616 517 345 237 321 443 215 294 389 552 332 330 365 179 282 482 497 414 319 24 22 24 0 0 0 0 0 0 0 0
0 0 0 0 0 0 0 0 0 0 0 0 0 271 345 376 319 213 174 185 172 195 256 446 425 414 397 309 365 648 644 500 217 10 7 8 0 0 0 0 0 0 0 0
0 0 0 3 0 0 0 0 0 0 0 0 6 158 306 222 247 275 221 238 163 130 173 370 458 456 388 420 562 707 542 248 123 99 48 20 0 0 0 0 0 0 0 0
0 0 0 0 0 0 0 0 0 19 6 0 0 0 1 169 93 50 195 279 182 208 109 148 335 402 438 536 722 671 407 220 113 100 184 95 0 0 0 0 0 0 0 0
0 3 0 0 0 0 0 0 0 12 3 0 3 2 0 3 0 0 66 181 285 290 253 226 224 374 449 616 738 648 529 418 145 243 358 71 1 0 0 0 0 0 0 0
0 1 0 0 0 0 5 0 0 0 0 1 4 0 0 11 1 0 0 27 272 360 337 243 290 379 461 658 718 607 684 588 391 393 283 29 13 2 3 0 0 0 0 0
0 0 0 0 0 0 17 23 1 0 1 0 0 0 0 0 0 0 0 0 104 430 427 363 363 478 631 679 638 722 793 662 479 319 219 18 19 20 0 0 0 0 0 0
0 0 0 0 0 0 12 0 0 0 0 1 3 0 7 6 0 0 5 3 216 252 477 526 641 720 766 683 640 834 768 718 532 398 277 131 66 30 0 0 0 0 0 0
0 0 0 1 1 0 5 2 1 3 5 0 1 11 0 13 1 6 14 2 89 572 660 784 831 898 927 949 885 740 688 658 458 529 266 168 86 26 0 0 0 0 0 0
6 21 11 1 1 4 0 0 13 32 0 0 0 0 0 83 41 52 30 45 23 535 682 755 871 945 958 919 826 803 709 594 414 334 210 124 97 37 0 0 0 0 0 0
14 15 15 10 0 3 5 1 1 1 16 1 0 0 0 7 14 7 25 47 76 398 815 911 1025 1070 1025 851 698 666 683 558 399 386 191 91 37 1 0 0 0 0 0 1
0 18 7 0 1 0 14 16 14 2 0 0 0 1 0 0 0 8 3 32 188 335 707 846 924 942 891 853 765 719 782 628 353 210 41 50 54 59 35 5 1 3 6 2
1 8 22 4 4 12 22 3 2 0 12 0 0 0 0 0 0 0 0 92 271 395 753 788 722 675 766 816 797 790 628 263 6 37 37 52 72 52 29 18 11 10 4 1
5 0 0 0 3 24 13 28 25 13 0 0 0 0 0 0 0 0 0 0 139 385 650 677 621 505 575 661 643 353 82 28 26 47 50 64 80 48 22 13 7 1 0 0
4 8 0 0 0 0 0 0 31 12 0 0 0 0 0 0 0 0 0 0 0 53 252 495 422 228 160 124 93 46 27 25 31 28 44 62 46 18 18 12 5 0 0 0
2 0 3 0 0 0 0 0 0 0 6 3 0 0 0 0 0 0 0 0 0 0 0 0 0 0 0 15 51 32 30 30 52 54 68 37 38 18 15 6 0 0 0 0
13 0 0 0 0 0 0 0 0 0 20 4 1 0 0 0 0 0 0 0 0 0 0 0 0 0 0 1 18 55 45 48 64 60 32 17 21 11 12 6 2 0 0 0
0 0 0 0 0 0 0 0 0 0 0 0 0 0 0 0 0 0 0 0 0 0 0 0 0 0 0 0 22 48 63 58 45 27 45 21 25 15 9 6 1 0 0 0
120 27 7 0 0 0 0 0 0 0 0 0 0 0 0 0 0 0 0 0 0 0 0 0 0 0 0 0 0 2 30 42 35 39 34 33 27 32 15 3 0 0 0 0
77 53 15 0 0 0 0 0 0 0 0 0 0 0 0 0 0 0 0 0 0 0 0 0 0 0 0 0 0 30 38 43 39 34 22 29 1 0 0 0 0 0 0 0
0 17 1 2 0 0 0 0 0 0 0 0 0 0 0 0 0 0 0 0 0 0 0 0 0 0 0 0 0 4 27 35 42 46 20 42 18 37 0 0 0 0 0 0
0 0 0 0 0 0 0 0 0 0 0 0 0 0 0 0 0 0 0 0 0 0 0 0 0 0 0 0 0 1 18 19 22 35 43 29 11 0 0 0 0 0 0 0
0 0 0 0 0 0 0 0 0 0 0 0 0 0 0 0 0 0 0 0 0 0 0 0 0 1 0 0 0 0 2 0 0 5 6 1 0 0 0 0 0 0 0 0
0 0 0 0 0 0 0 0 0 0 0 0 0 0 0 0 0 0 0 0 0 0 0 0 0 0 0 0 9 0 0 5 1 0 0 0 0 0 0 0 0 0 0 0
0 0 0 0 0 0 0 0 0 0 0 0 0 0 0 0 0 0 0 0 0 0 0 0 0 0 0 2 0 0 0 0 0 0 0 0 0 0 0 0 0 0 0 0
3 0 0 0 0 0 0 0 0 0 0 0 0 0 0 0 0 0 0 0 0 0 0 0 0 0 0 0 0 0 0 0 0 0 0 0 0 0 0 0 0 0 0 0